Tavèrnoles





Hora UTC 22:40
Temperatura 6.7 ºC
Humitat 93.0 %
Pressió 1027.1 hPa
Pluja 0.0 mm
Velocitat vent 0.0 km/h
Direcció vent S
Radiació solar 0.0 W/m²

Dades diàries 2020-10-29



Hora UTC (hivern +1h; estiu +2h)
Temperatura (ºC) Humitat (%) Pressió (hPa) Velocitat vent (km/h) Precipitació (mm) Radiació solar (W/m²)
Hora UTC Aire Humitat Pressió Vel. Dir. Vel. Max Dir. Intent. màx 5 min. Rad. Sol.
00:05 5.6 94.0 1024.9 0.0 S 0.0 0.0 0.0
00:10 5.4 93.0 1025.0 0.0 S 1.6 0.0 0.0
00:15 5.5 94.0 1024.9 0.0 S 1.6 0.0 0.0
00:20 5.5 94.0 1024.9 1.6 S 1.6 0.0 0.0
00:25 5.4 94.0 1024.8 0.0 S 1.6 0.0 0.0
00:30 5.4 94.0 1024.9 0.0 S 1.6 0.0 0.0
00:35 5.3 94.0 1024.9 0.0 S 0.0 0.0 0.0
00:40 5.3 94.0 1024.9 0.0 S 0.0 0.0 0.0
00:45 5.3 94.0 1025.1 0.0 S 0.0 0.0 0.0
00:50 5.3 94.0 1025.3 0.0 S 0.0 0.0 0.0
00:55 5.4 94.0 1025.2 0.0 S 0.0 0.0 0.0
01:00 5.4 94.0 1025.2 0.0 S 0.0 0.0 0.0
01:05 5.4 94.0 1025.2 0.0 S 0.0 0.0 0.0
01:10 5.4 94.0 1025.2 0.0 S 0.0 0.0 0.0
01:15 5.3 94.0 1025.2 0.0 S 0.0 0.0 0.0
01:20 5.1 94.0 1025.2 0.0 S 0.0 0.0 0.0
01:25 4.9 94.0 1025.3 0.0 S 0.0 0.0 0.0
01:30 4.9 94.0 1025.3 0.0 S 0.0 0.0 0.0
01:30 4.9 94.0 1025.4 0.0 S 0.0 0.0 0.0
01:35 5.1 94.0 1025.3 0.0 S 0.0 0.0 0.0
01:40 5.0 94.0 1025.3 0.0 S 0.0 0.0 0.0
01:45 5.0 94.0 1025.2 0.0 S 0.0 0.0 0.0
01:50 5.1 94.0 1025.0 0.0 S 0.0 0.0 0.0
01:55 5.3 94.0 1024.9 0.0 S 0.0 0.0 0.0
02:00 5.3 94.0 1025.0 0.0 S 0.0 0.0 0.0
02:05 5.3 94.0 1025.2 0.0 S 1.6 0.0 0.0
02:10 5.3 94.0 1025.1 0.0 S 1.6 0.0 0.0
02:15 5.4 94.0 1024.9 0.0 S 0.0 0.0 0.0
02:20 5.4 94.0 1024.8 0.0 S 0.0 0.0 0.0
02:25 5.4 94.0 1024.8 0.0 S 0.0 0.0 0.0
02:30 5.4 94.0 1024.8 0.0 S 0.0 0.0 0.0
02:35 5.5 94.0 1025.0 0.0 S 0.0 0.0 0.0
02:40 5.4 94.0 1025.2 0.0 S 0.0 0.0 0.0
02:45 5.3 94.0 1025.2 0.0 S 0.0 0.0 0.0
02:50 5.3 94.0 1025.2 0.0 S 0.0 0.0 0.0
02:55 5.3 94.0 1025.3 0.0 S 0.0 0.0 0.0
03:00 5.3 94.0 1025.2 0.0 S 0.0 0.0 0.0
03:05 5.0 94.0 1024.9 0.0 S 0.0 0.0 0.0
03:10 4.8 94.0 1025.0 0.0 S 0.0 0.0 0.0
03:15 4.7 94.0 1025.0 0.0 S 0.0 0.0 0.0
03:20 4.8 94.0 1025.2 0.0 S 0.0 0.0 0.0
03:25 4.8 94.0 1025.1 0.0 S 0.0 0.0 0.0
03:30 4.9 94.0 1025.1 0.0 S 0.0 0.0 0.0
03:35 5.0 94.0 1025.0 0.0 S 0.0 0.0 0.0
03:40 5.1 94.0 1025.1 0.0 S 0.0 0.0 0.0
03:45 5.2 94.0 1025.3 0.0 S 0.0 0.0 0.0
03:50 5.3 94.0 1025.5 0.0 S 0.0 0.0 0.0
03:55 5.4 94.0 1025.5 0.0 S 0.0 0.0 0.0
04:00 5.6 94.0 1025.6 0.0 S 0.0 0.0 0.0
04:05 5.7 94.0 1025.7 0.0 S 0.0 0.0 0.0
04:10 5.9 94.0 1025.7 0.0 S 0.0 0.0 0.0
04:15 6.1 94.0 1025.6 0.0 S 0.0 0.0 0.0
04:20 6.3 94.0 1025.4 0.0 S 0.0 0.0 0.0
04:25 6.5 94.0 1025.5 0.0 S 0.0 0.0 0.0
04:30 6.6 94.0 1025.8 0.0 S 0.0 0.0 0.0
04:35 6.7 94.0 1025.7 0.0 S 0.0 0.0 0.0
04:40 6.7 94.0 1025.8 0.0 S 0.0 0.0 0.0
04:45 6.8 94.0 1025.8 0.0 S 0.0 0.0 0.0
04:50 6.9 94.0 1025.7 0.0 S 0.0 0.0 0.0
04:55 7.0 94.0 1025.8 0.0 S 0.0 0.0 0.0
05:00 7.1 94.0 1026.0 0.0 S 0.0 0.0 0.0
05:05 7.2 94.0 1026.0 0.0 S 0.0 0.0 0.0
05:10 7.3 94.0 1025.9 0.0 S 0.0 0.0 0.0
05:15 7.4 94.0 1025.8 0.0 S 0.0 0.0 0.0
05:20 7.4 94.0 1025.9 0.0 S 0.0 0.0 0.0
05:25 7.6 94.0 1026.0 0.0 S 0.0 0.0 0.0
05:30 7.7 94.0 1026.0 0.0 S 0.0 0.0 0.0
05:35 7.7 94.0 1026.0 0.0 S 0.0 0.0 0.0
05:40 7.7 94.0 1025.9 0.0 S 0.0 0.0 0.0
05:45 7.8 94.0 1025.8 0.0 S 0.0 0.0 0.0
05:50 7.9 94.0 1025.8 0.0 S 0.0 0.0 0.0
05:55 7.9 94.0 1025.8 0.0 S 0.0 0.0 0.0
06:00 7.9 94.0 1025.8 0.0 S 0.0 0.0 0.0
06:05 7.9 94.0 1025.8 0.0 S 0.0 0.0 0.0
06:10 7.9 94.0 1025.8 0.0 S 0.0 0.0 0.0
06:15 7.9 94.0 1025.7 0.0 S 0.0 0.0 0.0
06:20 8.0 94.0 1025.8 0.0 S 0.0 0.0 0.0
06:25 8.1 94.0 1025.9 0.0 S 0.0 0.0 0.0
06:30 8.1 94.0 1025.9 0.0 S 0.0 0.0 0.0
06:35 8.1 94.0 1026.1 0.0 S 0.0 0.0 5.0
06:40 8.1 94.0 1026.1 0.0 S 0.0 0.0 9.0
06:45 8.1 94.0 1026.2 0.0 S 0.0 0.0 12.0
06:50 8.0 94.0 1026.4 0.0 S 0.0 0.0 12.0
06:55 8.1 94.0 1026.5 0.0 S 0.0 0.0 9.0
07:00 8.1 94.0 1026.6 0.0 S 0.0 0.0 11.0
07:05 8.2 94.0 1026.6 0.0 S 0.0 0.0 18.0
07:10 8.2 94.0 1026.6 0.0 S 0.0 0.0 21.0
07:15 8.3 94.0 1026.7 0.0 S 0.0 0.0 33.0
07:20 8.4 94.0 1026.6 0.0 S 0.0 0.0 56.0
07:30 8.5 94.0 1026.7 0.0 S 0.0 0.0 69.0
07:35 8.6 94.0 1026.6 0.0 S 0.0 0.0 51.0
07:40 8.7 94.0 1026.5 0.0 S 0.0 0.0 62.0
07:45 8.8 94.0 1026.6 0.0 S 0.0 0.0 58.0
07:50 8.9 94.0 1026.7 0.0 S 0.0 0.0 67.0
07:55 9.0 94.0 1026.6 0.0 S 0.0 0.0 69.0
08:00 9.0 94.0 1026.7 0.0 S 0.0 0.0 63.0
08:05 9.1 94.0 1026.7 0.0 S 0.0 0.0 72.0
08:10 9.1 94.0 1026.7 0.0 S 0.0 0.0 70.0
08:15 9.1 94.0 1026.6 0.0 S 0.0 0.0 46.0
08:20 9.1 94.0 1026.7 0.0 S 0.0 0.0 54.0
08:25 9.2 94.0 1026.6 0.0 S 0.0 0.0 86.0
08:30 9.2 94.0 1026.6 0.0 S 0.0 0.0 107.0
08:35 9.3 94.0 1026.7 0.0 S 0.0 0.0 160.0
08:40 9.5 94.0 1026.7 0.0 S 0.0 0.0 153.0
08:45 9.6 94.0 1026.7 0.0 S 0.0 0.0 193.0
08:50 9.8 94.0 1026.8 0.0 S 0.0 0.0 128.0
08:55 10.1 94.0 1026.9 0.0 NNW 0.0 0.0 123.0
09:00 10.2 94.0 1027.2 0.0 N 1.6 0.0 137.0
09:05 10.2 94.0 1027.1 0.0 NNW 4.8 0.0 190.0
09:10 10.3 94.0 1027.3 0.0 N 4.8 0.0 178.0
09:15 10.6 94.0 1027.3 0.0 N 4.8 0.0 121.0
09:20 10.6 94.0 1027.4 0.0 NNW 0.0 0.0 179.0
09:25 10.7 94.0 1027.3 0.0 NNW 0.0 0.0 125.0
09:30 10.8 94.0 1027.3 0.0 NNW 0.0 0.0 158.0
09:35 11.1 93.0 1027.2 0.0 NNW 0.0 0.0 336.0
09:40 11.4 93.0 1027.3 0.0 NNW 0.0 0.0 190.0
09:45 11.6 93.0 1027.2 0.0 NNW 0.0 0.0 195.0
09:50 11.8 93.0 1027.2 0.0 NNW 0.0 0.0 153.0
09:55 12.2 93.0 1027.1 0.0 NNW 0.0 0.0 158.0
09:55 12.3 92.0 1027.1 0.0 NNW 0.0 0.0 190.0
10:00 12.5 91.0 1027.1 0.0 NNW 0.0 0.0 573.0
10:05 13.1 91.0 1027.1 0.0 NNW 1.6 0.0 554.0
10:10 13.6 90.0 1027.0 0.0 NNW 1.6 0.0 563.0
10:15 13.9 88.0 1027.0 0.0 NW 4.8 0.0 526.0
10:20 14.2 87.0 1027.0 3.2 NNW 8.0 0.0 506.0
10:25 14.6 86.0 1027.0 3.2 NW 8.0 0.0 475.0
10:30 14.9 86.0 1026.9 6.4 NNW 8.0 0.0 461.0
10:35 14.8 84.0 1026.9 3.2 NNW 9.7 0.0 471.0
10:40 15.1 85.0 1026.8 4.8 NNW 9.7 0.0 482.0
10:45 15.1 82.0 1026.8 6.4 NW 8.0 0.0 473.0
10:50 15.3 82.0 1026.8 8.0 NNW 8.0 0.0 489.0
10:55 15.3 81.0 1026.8 3.2 NNW 8.0 0.0 485.0
11:00 15.5 81.0 1026.6 3.2 NNE 8.0 0.0 480.0
11:05 15.5 78.0 1026.6 0.0 NNW 6.4 0.0 450.0
11:10 15.6 80.0 1026.5 1.6 NW 6.4 0.0 476.0
11:15 15.7 78.0 1026.4 3.2 NNW 9.7 0.0 503.0
11:20 15.8 81.0 1026.3 6.4 W 9.7 0.0 499.0
11:25 16.1 78.0 1026.2 4.8 NNE 8.0 0.0 510.0
11:30 16.3 78.0 1026.1 3.2 SW 6.4 0.0 431.0
11:35 16.4 77.0 1026.0 3.2 NW 9.7 0.0 473.0
11:40 16.4 76.0 1026.1 4.8 NW 9.7 0.0 478.0
11:45 16.4 76.0 1026.0 4.8 NNW 8.0 0.0 503.0
11:50 16.6 79.0 1025.8 0.0 NW 8.0 0.0 404.0
11:55 16.6 75.0 1025.8 1.6 NW 8.0 0.0 489.0
12:00 16.6 74.0 1025.8 3.2 NW 9.7 0.0 418.0
12:05 16.6 76.0 1025.8 3.2 NNW 9.7 0.0 438.0
12:10 16.7 74.0 1025.7 3.2 WSW 8.0 0.0 501.0
12:15 16.9 74.0 1025.7 3.2 WNW 9.7 0.0 515.0
12:20 17.2 75.0 1025.7 3.2 NW 9.7 0.0 490.0
12:30 17.4 72.0 1025.6 4.8 NW 8.0 0.0 517.0
12:35 17.4 72.0 1025.6 6.4 N 12.9 0.0 432.0
12:40 17.3 73.0 1025.4 3.2 NW 12.9 0.0 439.0
12:45 17.3 73.0 1025.3 3.2 NNW 8.0 0.0 531.0
12:50 17.3 73.0 1025.4 3.2 WNW 8.0 0.0 578.0
12:55 17.1 71.0 1025.4 6.4 WNW 12.9 0.0 171.0
13:00 16.9 72.0 1025.4 1.6 N 12.9 0.0 494.0
13:05 17.2 71.0 1025.3 6.4 NNW 12.9 0.0 487.0
13:10 17.2 70.0 1025.3 3.2 NW 17.7 0.0 459.0
13:15 17.4 73.0 1025.3 4.8 NW 17.7 0.0 443.0
13:20 17.4 69.0 1025.1 4.8 NW 9.7 0.0 436.0
13:25 17.4 68.0 1025.1 6.4 NNE 12.9 0.0 432.0
13:30 17.3 70.0 1025.1 8.0 NW 12.9 0.0 410.0
13:35 17.2 70.0 1025.1 4.8 NNW 17.7 0.0 387.0
13:40 17.2 69.0 1025.0 3.2 NW 17.7 0.0 367.0
13:45 17.3 70.0 1025.0 6.4 NNW 12.9 0.0 385.0
13:50 17.3 68.0 1025.0 4.8 NW 14.5 0.0 387.0
13:55 17.3 68.0 1024.9 4.8 NNW 14.5 0.0 359.0
14:00 17.5 70.0 1025.0 8.0 NNW 8.0 0.0 362.0
14:05 17.7 67.0 1025.0 4.8 NW 8.0 0.0 357.0
14:05 17.8 69.0 1025.0 3.2 W 8.0 0.0 348.0
14:15 17.8 67.0 1025.0 4.8 NW 8.0 0.0 336.0
14:20 17.9 68.0 1025.0 4.8 NW 6.4 0.0 338.0
14:25 17.8 68.0 1025.0 4.8 NNW 8.0 0.0 325.0
14:30 17.7 67.0 1025.0 8.0 NW 8.0 0.0 287.0
14:35 17.7 68.0 1025.0 0.0 W 8.0 0.0 283.0
14:40 17.8 68.0 1025.0 4.8 NNE 8.0 0.0 250.0
14:45 17.7 68.0 1025.0 3.2 NNW 6.4 0.0 243.0
14:50 17.7 67.0 1025.0 1.6 NNW 6.4 0.0 237.0
14:55 17.7 66.0 1025.1 0.0 NNW 4.8 0.0 229.0
15:00 17.6 66.0 1025.0 1.6 N 6.4 0.0 218.0
15:05 17.7 67.0 1025.1 0.0 N 6.4 0.0 216.0
15:10 17.6 71.0 1025.2 0.0 N 3.2 0.0 202.0
15:15 17.5 68.0 1025.2 3.2 NNW 3.2 0.0 197.0
15:20 17.3 67.0 1025.2 3.2 NW 4.8 0.0 183.0
15:25 17.3 71.0 1025.2 0.0 NW 4.8 0.0 174.0
15:30 17.2 71.0 1025.2 1.6 NW 4.8 0.0 120.0
15:35 17.1 72.0 1025.2 0.0 NNW 4.8 0.0 77.0
15:40 17.1 72.0 1025.2 0.0 NNW 4.8 0.0 74.0
15:45 16.7 73.0 1025.2 0.0 NNW 3.2 0.0 51.0
15:50 16.2 74.0 1025.2 0.0 NNW 1.6 0.0 46.0
15:55 15.6 76.0 1025.1 0.0 NNW 1.6 0.0 77.0
16:00 15.1 78.0 1025.2 0.0 NNW 1.6 0.0 33.0
16:05 14.6 79.0 1025.2 3.2 W 4.8 0.0 28.0
16:10 14.2 81.0 1025.2 0.0 W 4.8 0.0 23.0
16:15 13.8 83.0 1025.1 0.0 W 3.2 0.0 21.0
16:20 13.3 84.0 1025.1 0.0 W 3.2 0.0 19.0
16:25 13.0 85.0 1025.2 0.0 W 1.6 0.0 18.0
16:30 12.7 86.0 1025.2 0.0 W 0.0 0.0 16.0
16:35 12.3 87.0 1025.3 0.0 W 0.0 0.0 12.0
16:40 12.2 88.0 1025.3 0.0 W 0.0 0.0 9.0
16:45 12.0 88.0 1025.2 1.6 W 3.2 0.0 7.0
16:50 11.8 89.0 1025.3 3.2 W 3.2 0.0 0.0
16:55 11.8 89.0 1025.4 1.6 W 3.2 0.0 0.0
17:00 11.7 89.0 1025.5 1.6 SW 4.8 0.0 0.0
17:05 11.6 89.0 1025.5 1.6 SW 4.8 0.0 0.0
17:10 11.4 89.0 1025.5 1.6 SW 4.8 0.0 0.0
17:15 11.3 89.0 1025.6 1.6 S 6.4 0.0 0.0
17:20 11.2 90.0 1025.6 3.2 S 6.4 0.0 0.0
17:25 11.1 90.0 1025.6 3.2 S 4.8 0.0 0.0
17:30 10.9 90.0 1025.7 3.2 S 4.8 0.0 0.0
17:35 10.7 90.0 1025.7 3.2 S 6.4 0.0 0.0
17:40 10.4 90.0 1025.8 3.2 S 6.4 0.0 0.0
17:45 10.4 90.0 1025.8 3.2 S 6.4 0.0 0.0
17:50 10.3 91.0 1025.9 3.2 S 4.8 0.0 0.0
17:55 10.2 91.0 1025.9 1.6 S 4.8 0.0 0.0
18:00 10.2 91.0 1026.0 0.0 S 4.8 0.0 0.0
18:05 10.1 91.0 1026.0 1.6 S 4.8 0.0 0.0
18:10 10.1 91.0 1026.1 0.0 S 3.2 0.0 0.0
18:15 10.1 91.0 1026.2 0.0 S 4.8 0.0 0.0
18:20 10.1 92.0 1026.2 1.6 S 4.8 0.0 0.0
18:25 9.8 91.0 1026.2 0.0 S 3.2 0.0 0.0
18:30 9.6 91.0 1026.2 0.0 S 4.8 0.0 0.0
18:35 9.4 91.0 1026.3 0.0 S 4.8 0.0 0.0
18:40 9.3 92.0 1026.3 0.0 S 3.2 0.0 0.0
18:45 9.2 92.0 1026.2 1.6 S 4.8 0.0 0.0
18:50 9.2 92.0 1026.2 0.0 S 4.8 0.0 0.0
18:55 9.2 92.0 1026.3 0.0 S 4.8 0.0 0.0
18:55 9.1 92.0 1026.2 0.0 S 4.8 0.0 0.0
19:05 9.0 92.0 1026.2 3.2 S 4.8 0.0 0.0
19:05 8.9 92.0 1026.2 0.0 S 4.8 0.0 0.0
19:10 8.9 92.0 1026.3 0.0 S 4.8 0.0 0.0
19:15 8.8 92.0 1026.3 0.0 S 4.8 0.0 0.0
19:20 8.8 92.0 1026.3 1.6 S 4.8 0.0 0.0
19:25 8.7 92.0 1026.3 1.6 S 4.8 0.0 0.0
19:30 8.7 92.0 1026.3 0.0 S 3.2 0.0 0.0
19:35 8.7 92.0 1026.2 0.0 S 3.2 0.0 0.0
19:40 8.6 93.0 1026.3 0.0 S 0.0 0.0 0.0
19:45 8.4 92.0 1026.3 0.0 S 1.6 0.0 0.0
19:50 8.3 92.0 1026.4 0.0 S 1.6 0.0 0.0
19:55 8.3 93.0 1026.4 0.0 S 1.6 0.0 0.0
20:00 8.3 93.0 1026.4 0.0 S 1.6 0.0 0.0
20:05 8.2 93.0 1026.4 0.0 S 0.0 0.0 0.0
20:10 8.0 93.0 1026.4 0.0 S 0.0 0.0 0.0
20:15 7.9 93.0 1026.4 0.0 S 0.0 0.0 0.0
20:20 7.8 93.0 1026.4 0.0 S 0.0 0.0 0.0
20:25 7.8 93.0 1026.5 1.6 S 3.2 0.0 0.0
20:30 7.8 93.0 1026.6 0.0 S 3.2 0.0 0.0
20:35 7.8 93.0 1026.6 0.0 S 3.2 0.0 0.0
20:40 7.8 93.0 1026.6 0.0 S 0.0 0.0 0.0
20:45 7.7 93.0 1026.8 0.0 S 0.0 0.0 0.0
20:50 7.7 93.0 1026.8 0.0 S 0.0 0.0 0.0
20:55 7.5 93.0 1026.8 0.0 S 0.0 0.0 0.0
21:00 7.4 93.0 1026.8 0.0 S 0.0 0.0 0.0
21:05 7.4 93.0 1026.8 0.0 S 0.0 0.0 0.0
21:10 7.4 93.0 1026.8 0.0 S 0.0 0.0 0.0
21:15 7.3 93.0 1026.8 0.0 S 1.6 0.0 0.0
21:20 7.3 93.0 1026.9 0.0 S 1.6 0.0 0.0
21:25 7.3 93.0 1026.9 0.0 S 3.2 0.0 0.0
21:30 7.3 93.0 1027.0 0.0 S 3.2 0.0 0.0
21:35 7.4 93.0 1027.0 0.0 S 0.0 0.0 0.0
21:40 7.4 93.0 1026.9 0.0 S 0.0 0.0 0.0
21:45 7.2 93.0 1026.9 0.0 S 4.8 0.0 0.0
21:50 7.1 93.0 1027.0 0.0 S 4.8 0.0 0.0
21:55 7.1 93.0 1027.0 0.0 S 3.2 0.0 0.0
22:00 7.1 93.0 1027.0 0.0 S 1.6 0.0 0.0
22:05 7.2 93.0 1027.0 0.0 S 1.6 0.0 0.0
22:10 7.2 93.0 1027.0 0.0 S 1.6 0.0 0.0
22:15 7.1 93.0 1027.0 0.0 S 0.0 0.0 0.0
22:20 7.0 93.0 1027.1 0.0 S 0.0 0.0 0.0
22:25 7.1 93.0 1027.1 0.0 S 0.0 0.0 0.0
22:30 7.0 93.0 1027.1 0.0 S 0.0 0.0 0.0
22:35 6.9 93.0 1027.1 0.0 S 0.0 0.0 0.0
22:40 6.7 93.0 1027.1 0.0 S 0.0 0.0 0.0
Màxima 17.9 94.0 1027.4 8.0 NW 17.7 0.0 578.0
Mínima 4.7 66.0 1024.8
Total 0.0